Galesburg, IL

7:50 PM CDT on August 19, 2019 (GMT -0500)
Galesburg Municipal

Weather History for KGBG - May, 2019

Change the Weather History Date:

Thursday, May 30, 2019

  Actual Average Record
Temperature  
Mean Temperature 68 °F -  
Max Temperature 76 °F 76 °F 93 °F (1953)
Min Temperature 61 °F 56 °F 41 °F (1984)
Cooling Degree Days 4    
Growing Degree Days 18 (Base 50)    
Moisture  
Dew Point 61 °F    
Average Humidity 80    
Maximum Humidity 100    
Minimum Humidity 53    
Precipitation  
Precipitation 0.12 in - - ()
Sea Level Pressure  
Sea Level Pressure 29.79 in    
Wind  
Wind Speed 7 mph (WSW)    
Max Wind Speed 17 mph    
Max Gust Speed 23 mph    
Visibility 10 miles    
Events Rain    
Averages and records for this station are not official NWS values.
T = Trace of Precipitation, MM = Missing Value Source: NWS Daily Summary

Daily Weather History Graph

Daily Weather History Graph

Search for Another Location

Airport or City:

Astronomy

May. 30, 2019 Rise Set
Actual Time 5:33 AM CDT 8:25 PM CDT
Civil Twilight 5:00 AM CDT 8:58 PM CDT
Nautical Twilight 4:19 AM CDT 9:39 PM CDT
Astronomical Twilight 3:31 AM CDT 10:27 PM CDT
Moon 3:41 AM CDT (5/30) 4:31 PM CDT (5/30)
Length of Visible Light 15h 58m
Length of Day
14h 52m
Waning Crescent, 15% of the Moon is Illuminated
May 30
Waning Crescent
Jun 3
New
Jun 10
First Quarter
Jun 17
Full
Jun 25
Last Quarter

Hourly Weather History & Observations

Time (CDT) Temp. Dew Point Humidity Pressure Visibility Wind Dir Wind Speed Gust Speed Precip Events Conditions
12:15 AM 66.0 °F 62.6 °F 89% 29.76 in 10.0 mi SW 6.9 mph - N/A   Light Drizzle
12:35 AM 65.7 °F 62.6 °F 90% 29.75 in 10.0 mi WSW 10.4 mph 16.1 mph 0.01 in Rain Light Rain
12:55 AM 65.7 °F 61.9 °F 88% 29.77 in 10.0 mi SE 6.9 mph - 0.01 in Rain Light Rain
1:15 AM 65.3 °F 62.6 °F 91% 29.78 in 10.0 mi WSW 10.4 mph - 0.01 in Rain Rain
1:35 AM 64.9 °F 64.2 °F 98% 29.76 in 10.0 mi WSW 5.8 mph - 0.03 in Rain Rain
1:55 AM 64.9 °F 64.4 °F 98% 29.76 in 10.0 mi ESE 5.8 mph - 0.06 in Rain Light Rain
2:15 AM 64.8 °F 64.4 °F 99% 29.76 in 10.0 mi ESE 3.5 mph - 0.02 in Rain Light Rain
2:35 AM 64.4 °F 64.2 °F 99% 29.76 in 10.0 mi Calm Calm - 0.03 in Rain Light Rain
2:55 AM 64.0 °F 63.9 °F 99% 29.75 in 10.0 mi Calm Calm - 0.04 in Rain Light Rain
3:15 AM 63.9 °F 63.9 °F 100% 29.75 in 10.0 mi Calm Calm - N/A Rain Rain
3:35 AM 64.4 °F 64.4 °F 100% 29.76 in 10.0 mi ESE 5.8 mph - 0.01 in Rain Light Rain
3:55 AM 64.4 °F 64.4 °F 100% 29.76 in 7.0 mi East 4.6 mph - 0.01 in   Overcast
4:15 AM 64.6 °F 64.6 °F 100% 29.76 in 10.0 mi East 6.9 mph - N/A   Overcast
4:35 AM 64.6 °F 64.6 °F 100% 29.76 in 10.0 mi ESE 5.8 mph - N/A   Overcast
4:55 AM 64.6 °F 64.6 °F 100% 29.76 in 10.0 mi WSW 6.9 mph - N/A   Overcast
5:15 AM 64.4 °F 64.4 °F 100% 29.76 in 10.0 mi WSW 5.8 mph - N/A   Overcast
5:35 AM 64.4 °F 64.4 °F 100% 29.76 in 10.0 mi WSW 5.8 mph - N/A   Overcast
5:55 AM 64.4 °F 64.0 °F 99% 29.77 in 10.0 mi SW 6.9 mph - N/A   Overcast
6:15 AM 64.0 °F 64.0 °F 100% 29.77 in 10.0 mi SW 6.9 mph - N/A   Overcast
6:35 AM 64.0 °F 64.0 °F 100% 29.78 in 10.0 mi SW 6.9 mph - N/A   Overcast
6:55 AM 63.9 °F 63.9 °F 100% 29.78 in 10.0 mi SW 5.8 mph - N/A   Overcast
7:15 AM 64.6 °F 64.6 °F 100% 29.78 in 10.0 mi SW 6.9 mph - N/A   Mostly Cloudy
7:35 AM 65.1 °F 64.6 °F 98% 29.78 in 10.0 mi SW 5.8 mph - N/A   Clear
7:55 AM 66.4 °F 63.0 °F 89% 29.78 in 10.0 mi WSW 8.1 mph - N/A   Clear
8:15 AM 67.1 °F 62.6 °F 85% 29.77 in 10.0 mi West 6.9 mph - N/A   Clear
8:35 AM 67.6 °F 62.4 °F 83% 29.77 in 10.0 mi SW 8.1 mph - N/A   Scattered Clouds
8:55 AM 68.2 °F 62.1 °F 81% 29.77 in 10.0 mi SW 8.1 mph - N/A   Clear
9:15 AM 68.5 °F 62.6 °F 81% 29.78 in 10.0 mi WSW 6.9 mph - N/A   Scattered Clouds
9:35 AM 69.3 °F 63.1 °F 81% 29.77 in 10.0 mi SW 6.9 mph - N/A   Scattered Clouds
9:55 AM 70.5 °F 62.6 °F 76% 29.78 in 10.0 mi WSW 9.2 mph - N/A   Scattered Clouds
10:15 AM 71.4 °F 62.2 °F 73% 29.78 in 10.0 mi WSW 10.4 mph - N/A   Scattered Clouds
10:35 AM 72.1 °F 61.5 °F 69% 29.78 in 10.0 mi SW 10.4 mph - N/A   Scattered Clouds
10:55 AM 72.7 °F 61.0 °F 67% 29.78 in 10.0 mi SW 6.9 mph - N/A   Scattered Clouds
11:15 AM 73.9 °F 59.7 °F 61% 29.79 in 10.0 mi SW 10.4 mph 17.3 mph N/A   Scattered Clouds
11:35 AM 73.6 °F 59.5 °F 61% 29.79 in 10.0 mi WSW 10.4 mph - N/A   Scattered Clouds
11:55 AM 73.4 °F 58.8 °F 60% 29.80 in 10.0 mi WSW 8.1 mph - N/A   Mostly Cloudy
12:15 PM 72.5 °F 58.6 °F 62% 29.80 in 10.0 mi WSW 11.5 mph - N/A   Overcast
12:35 PM 75.0 °F 59.5 °F 58% 29.79 in 10.0 mi WSW 11.5 mph - N/A   Mostly Cloudy
12:55 PM 74.7 °F 59.5 °F 59% 29.79 in 10.0 mi WSW 10.4 mph - N/A   Mostly Cloudy
1:15 PM 74.7 °F 61.0 °F 62% 29.80 in 10.0 mi SW 10.4 mph - N/A   Mostly Cloudy
1:55 PM 74.8 °F 61.3 °F 63% 29.80 in 10.0 mi SW 8.1 mph - N/A   Mostly Cloudy
2:15 PM 74.7 °F 60.1 °F 60% 29.80 in 10.0 mi West 12.7 mph 18.4 mph N/A   Mostly Cloudy
2:35 PM 72.7 °F 59.5 °F 63% 29.80 in 10.0 mi WSW 8.1 mph - N/A   Overcast
2:55 PM 74.8 °F 59.4 °F 58% 29.80 in 10.0 mi West 9.2 mph - N/A   Overcast
3:15 PM 74.3 °F 58.3 °F 57% 29.80 in 10.0 mi West 8.1 mph - N/A   Mostly Cloudy
3:35 PM 75.4 °F 58.3 °F 55% 29.80 in 10.0 mi West 8.1 mph - N/A   Overcast
3:55 PM 74.3 °F 58.6 °F 58% 29.79 in 10.0 mi WNW 5.8 mph - N/A   Overcast
4:15 PM 76.1 °F 57.9 °F 53% 29.79 in 10.0 mi WSW 8.1 mph - N/A   Mostly Cloudy
4:35 PM 74.7 °F 56.8 °F 54% 29.79 in 10.0 mi WSW 6.9 mph - N/A   Scattered Clouds
4:55 PM 71.2 °F 58.8 °F 65% 29.80 in 10.0 mi WSW 15.0 mph - N/A   Mostly Cloudy
5:15 PM 69.3 °F 59.4 °F 71% 29.80 in 10.0 mi West 17.3 mph 23.0 mph N/A   Overcast
5:35 PM 67.5 °F 59.9 °F 77% 29.81 in 10.0 mi West 12.7 mph - N/A   Overcast
5:55 PM 68.0 °F 60.1 °F 76% 29.81 in 10.0 mi West 10.4 mph - N/A   Overcast
6:15 PM 68.0 °F 60.6 °F 77% 29.80 in 10.0 mi West 9.2 mph - N/A   Overcast
6:35 PM 67.6 °F 60.1 °F 77% 29.81 in 10.0 mi WNW 8.1 mph - N/A   Overcast
6:55 PM 68.0 °F 59.5 °F 74% 29.82 in 10.0 mi WNW 4.6 mph - N/A   Overcast
7:15 PM 67.8 °F 58.1 °F 71% 29.83 in 10.0 mi WNW 6.9 mph - N/A   Overcast
7:35 PM 68.0 °F 59.5 °F 74% 29.83 in 10.0 mi West 5.8 mph - N/A   Overcast
7:55 PM 67.6 °F 59.0 °F 74% 29.83 in 10.0 mi West 6.9 mph - N/A   Overcast
8:15 PM 67.5 °F 58.5 °F 73% 29.84 in 10.0 mi West 5.8 mph - N/A   Mostly Cloudy
8:55 PM 66.0 °F 57.6 °F 74% 29.84 in 10.0 mi WSW 3.5 mph - N/A   Scattered Clouds
9:35 PM 64.8 °F 56.7 °F 75% 29.84 in 10.0 mi SW 4.6 mph - N/A   Clear
9:55 PM 63.9 °F 56.7 °F 77% 29.85 in 10.0 mi SW 3.5 mph - N/A   Scattered Clouds
10:15 PM 63.1 °F 57.2 °F 81% 29.85 in 10.0 mi SW 3.5 mph - N/A   Mostly Cloudy
10:35 PM 63.7 °F 57.6 °F 80% 29.86 in 10.0 mi Calm Calm - N/A   Overcast
10:55 PM 62.8 °F 57.9 °F 84% 29.87 in 10.0 mi Calm Calm - N/A   Scattered Clouds
11:15 PM 62.6 °F 58.6 °F 87% 29.86 in 10.0 mi Calm Calm - N/A   Scattered Clouds
11:35 PM 61.7 °F 58.1 °F 88% 29.86 in 10.0 mi West 5.8 mph - N/A   Scattered Clouds
11:55 PM 61.5 °F 58.3 °F 89% 29.87 in 10.0 mi Calm Calm - N/A   Scattered Clouds